Weather History for Dayton, OH

Change the Weather History Date:

Sunday, April 13, 2014

  Actual Average Record
Temperature  
Mean Temperature 73 °F 51 °F  
Max Temperature 80 °F 61 °F 85 °F (1887)
Min Temperature 65 °F 41 °F 19 °F (1950)
Degree Days  
Heating Degree Days 0 14  
Month to date heating degree days 144 216  
Since 1 July heating degree days 5620 5255  
Cooling Degree Days 8 0  
Month to date cooling degree days 8 0  
Year to date cooling degree days 8 0  
Growing Degree Days 22 (Base 50)    
Moisture  
Dew Point 51 °F    
Average Humidity 47    
Maximum Humidity 63    
Minimum Humidity 31    
Precipitation  
Precipitation 0.00 in 0.13 in 1.07 in (1991)
Month to date precipitation 3.23 1.70  
Year to date precipitation 10.83 9.99  
Snow  
Snow 0.00 in 0.10 in 0.50 in (1950)
Month to date snowfall 0.0 0.5  
Since 1 July snowfall 52.5 23.2  
Snow Depth 0.00 in    
Sea Level Pressure  
Sea Level Pressure 29.83 in    
Wind  
Wind Speed 16 mph (SSW)    
Max Wind Speed 28 mph    
Max Gust Speed 36 mph    
Visibility 10 miles    
Events      
T = Trace of Precipitation, MM = Missing Value Source: NWS Daily Summary

Daily Weather History Graph

Daily Weather History Graph

Search for Another Location

Airport:

Trip Planner

Search our weather history database for the weather conditions in past years. The results will help you decide how hot, cold, wet, or windy it might be!

Date:

Astronomy

Apr. 13, 2014 Rise Set
Actual Time 7:02 AM EDT 8:13 PM EDT
Civil Twilight 6:34 AM EDT 8:41 PM EDT
Nautical Twilight 6:01 AM EDT 9:14 PM EDT
Astronomical Twilight 5:26 AM EDT 9:49 PM EDT
Moon 6:50 PM EDT (4/13) 6:00 AM EDT (4/13)
Length of Visible Light 14h 06m
Length of Day
13h 11m
Waxing Gibbous, 97% of the Moon is Illuminated
Apr 13
Waxing Gibbous
Apr 15
Full
Apr 22
Last Quarter
Apr 29
New
May 6
First Quarter

Hourly Weather History & Observations

Time (EDT) Temp. Dew Point Humidity Pressure Visibility Wind Dir Wind Speed Gust Speed Precip Events Conditions
12:56 AM 66.9 °F 51.1 °F 57% 29.86 in 10.0 mi SSW 11.5 mph - N/A   Scattered Clouds
1:56 AM 66.9 °F 51.1 °F 57% 29.85 in 10.0 mi South 10.4 mph - N/A   Partly Cloudy
2:56 AM 68.0 °F 51.1 °F 55% 29.85 in 10.0 mi SSW 16.1 mph 23.0 mph N/A   Partly Cloudy
3:56 AM 66.9 °F 51.1 °F 57% 29.86 in 10.0 mi SSW 11.5 mph 21.9 mph N/A   Scattered Clouds
4:56 AM 66.2 °F 51.8 °F 60% 29.90 in 10.0 mi SSW 11.5 mph - N/A   Mostly Cloudy
5:56 AM 64.9 °F 51.1 °F 61% 29.90 in 10.0 mi SSW 9.2 mph - N/A   Mostly Cloudy
6:56 AM 64.9 °F 51.1 °F 61% 29.88 in 10.0 mi South 13.8 mph 23.0 mph N/A   Scattered Clouds
7:56 AM 66.9 °F 53.1 °F 61% 29.88 in 10.0 mi South 16.1 mph - N/A   Scattered Clouds
8:56 AM 66.9 °F 54.0 °F 63% 29.89 in 10.0 mi SSW 18.4 mph 27.6 mph N/A   Scattered Clouds
9:56 AM 70.0 °F 55.0 °F 59% 29.89 in 10.0 mi SSW 21.9 mph 32.2 mph N/A   Scattered Clouds
10:56 AM 72.0 °F 55.9 °F 57% 29.89 in 10.0 mi SW 21.9 mph 32.2 mph N/A   Scattered Clouds
11:56 AM 75.0 °F 55.9 °F 51% 29.88 in 10.0 mi SSW 21.9 mph 31.1 mph N/A   Scattered Clouds
12:56 PM 75.0 °F 55.9 °F 51% 29.87 in 10.0 mi SW 21.9 mph 33.4 mph N/A   Mostly Cloudy
1:56 PM 75.0 °F 55.0 °F 50% 29.87 in 10.0 mi SSW 18.4 mph 29.9 mph N/A   Mostly Cloudy
2:56 PM 75.9 °F 55.9 °F 50% 29.86 in 10.0 mi SSW 18.4 mph 25.3 mph N/A   Mostly Cloudy
3:56 PM 78.1 °F 52.0 °F 40% 29.83 in 10.0 mi SSW 24.2 mph 32.2 mph N/A   Scattered Clouds
4:56 PM 79.0 °F 51.1 °F 38% 29.81 in 10.0 mi SSW 21.9 mph 29.9 mph N/A   Mostly Cloudy
5:56 PM 79.0 °F 48.9 °F 35% 29.79 in 10.0 mi South 12.7 mph 25.3 mph N/A   Mostly Cloudy
6:56 PM 78.1 °F 46.0 °F 32% 29.77 in 10.0 mi South 13.8 mph - N/A   Overcast
7:56 PM 77.0 °F 44.1 °F 31% 29.76 in 10.0 mi South 11.5 mph - N/A   Overcast
8:56 PM 75.0 °F 43.0 °F 32% 29.75 in 10.0 mi SSW 13.8 mph 21.9 mph N/A   Overcast
9:56 PM 73.9 °F 43.0 °F 33% 29.75 in 10.0 mi South 13.8 mph - N/A   Mostly Cloudy
10:56 PM 73.0 °F 43.0 °F 34% 29.73 in 10.0 mi South 11.5 mph - N/A   Mostly Cloudy
11:56 PM 71.1 °F 44.1 °F 38% 29.72 in 10.0 mi South 11.5 mph - N/A   Mostly Cloudy